Rickenbacker International Airport
KLCK : now visible

Airfield :











YOU CAN JOIN US ON...

 
LOGIN :

Register | Disclaimer

   EN    FR    IT 

 









Legend :    VFR   Marginal VFR   IFR   Intensive IFR   Very Intensive IFR
Visi :
Ceiling :
>= 8 km
>= 3000ft
5 to 8 km
1000 to 3000 ft
1500m to 5 km
500 to 1000 ft
800 to 1500m
200 to 500 ft
< 800m
< 200 ft
Symbols :   Thunderstorms  Fog  Heavy snow  Heavy precipitations  Wind > 20 kt






- Airport Elevation : 744 ft


KLCK - Rickenbacker International

CURRENT METAR :
  • 231455Z AUTO 19009KT 10SM OVC100 04/M07 A3017 RMK AO2 T00381075

EXPIRED METARs :
  • 231355Z AUTO 18008KT 10SM CLR 01/M09 A3018 RMK AO2 T00141088
  • 231255Z AUTO 18007KT 10SM CLR M01/M09 A3018 RMK AO2 T10061094

TAF KLCK
Valid from the 23 at 15:00 until the 24 at 12:00 UTC


231458Z 2315/2412 20008KT P6SM OVC070
FM231900 20011KT P6SM SCT070 SCT250
FM240000 19005KT P6SM SCT250
FM241000 17003KT P6SM BKN045



MET'MAP, your aeronautical weather chart ! - Copyright ORBIFLY December 2007 - Disclaimer

ORBIFLY MET'MAP TEAM :

Programming & Development : Alexandra Zaïnal
Concept & original design : Baudouin d'Aumeries
Assistance for programming : Marc-Olivier Méhu
Technical & hardware support : Manuel Goepfert

Contact : metmap@orbifly.com




SOURCES & CREDITS :

   NOAA       Earth
Advisory